This is the latest recevied weather packets stored in our database for station/object HB9FHL-13. If no packets are shown the sender has not sent any weather packets the latest 10 day(s).
| Time | Temp. | Humidity | Pressure | Rain* | Wind** | Luminosity | Snow |
|---|---|---|---|---|---|---|---|
| 1777858272 | 13.89° C | - | 1017.5 hPa | 0 mm | - | - | - |
| 1777857971 | 12.78° C | - | 1016.9 hPa | 0 mm | - | - | - |
| 1777857670 | 13.33° C | - | 1016.3 hPa | 0 mm | - | - | - |
| 1777857369 | 13.33° C | - | 1014.9 hPa | 0 mm | - | - | - |
| 1777857067 | 13.33° C | - | 1019.5 hPa | 0 mm | - | - | - |
| 1777856767 | 13.89° C | - | 1013.8 hPa | 0 mm | - | - | - |
| 1777856466 | 14.44° C | - | 1013.5 hPa | 0 mm | - | - | - |
| 1777856166 | 14.44° C | - | 1015.6 hPa | 0 mm | - | - | - |
| 1777855865 | 13.89° C | - | 1012 hPa | 0 mm | - | - | - |
| 1777855564 | 14.44° C | - | 1019.5 hPa | 0 mm | - | - | - |
| 1777855264 | 13.33° C | - | 1014.5 hPa | 0 mm | - | - | - |
| 1777854963 | 13.33° C | - | 1015.5 hPa | 0 mm | - | - | - |
| 1777854663 | 14.44° C | - | 1011.7 hPa | 0 mm | - | - | - |
| 1777854362 | 13.33° C | - | 1016.2 hPa | 0 mm | - | - | - |
| 1777854062 | 13.89° C | - | 1015.6 hPa | 0 mm | - | - | - |
| 1777853761 | 13.33° C | - | 1015.7 hPa | 0 mm | - | - | - |
| 1777853461 | 14.44° C | - | 1020.6 hPa | 0 mm | - | - | - |
| 1777853160 | 13.33° C | - | 1015.3 hPa | 0 mm | - | - | - |
| 1777852860 | 13.89° C | - | 1019.8 hPa | 0 mm | - | - | - |
| 1777852560 | 13.89° C | - | 1018.2 hPa | 0 mm | - | - | - |
| 1777852259 | 13.33° C | - | 1020.1 hPa | 0 mm | - | - | - |
| 1777851959 | 13.33° C | - | 1017.4 hPa | 0 mm | - | - | - |
| 1777851658 | 13.33° C | - | 1011.7 hPa | 0 mm | - | - | - |
| 1777851358 | 13.33° C | - | 1017.8 hPa | 0 mm | - | - | - |
| 1777851057 | 13.89° C | - | 1019.8 hPa | 0 mm | - | - | - |
* Rain since midnight (hover to see other rain measurements)
** Current wind speed in m/s (hover to see current wind gust speed)